Flag for Finland Weather past 2 weeks in Vantaa, Finland

Now
57 °F

Partly sunny.


Feels Like: 55 °F
Forecast: 47 / 59 °F
Wind: 12 mph from Northwest

Location: Helsinki-Vantaa

Current Time: Aug 29, 2014 at 11:26:59 AM

Latest Report: Aug 29, 2014 at 10:50 AM


Visibility: N/A

Pressure: 29.83 "Hg

Humidity: 72%

Dew point: 48 °F

Location of VantaaLocation

Historic Weather in Vantaa — Graph

°F

Vantaa temperature yesterday

Maximum temperature yesterday: 64 °F (at 1:50 PM)
Minimum temperature yesterday: 50 °F (at 10:50 PM)
Average temperature yesterday: 57 °F

Past Weeks' High & Low Weather Summary

 TemperatureHumidityPressure
High73 °F (Aug 15, 3:20 PM)100% (Aug 15, 11:50 PM)29.86 "Hg (Aug 15, 11:50 PM)
Low50 °F (Aug 22, 11:50 PM)43% (Aug 17, 1:50 PM)29.33 "Hg (Aug 26, 6:50 AM)
Average58 °F84%29.61 "Hg
* Reported Aug 14 10:20 AM — Aug 29 10:20 AM, Vantaa, Weather by CustomWeather, © 2014

Note: Actual official high and low records may vary slightly from our data, if they occured in-between our weather recording intervals... More about our weather records

Advertising

Vantaa weather history for previous 24 hours

 ConditionsComfort  
Time TempWeatherWind HumidityBarometerVisibility
10:20 AM
Aug 29
55 °FPartly sunny.12 mph82%29.83 "HgN/A
9:50 AM55 °FPartly sunny.9 mph82%29.83 "HgN/A
9:20 AM54 °FPartly sunny.8 mph94%29.80 "HgN/A
8:50 AM54 °FPartly sunny.9 mph88%29.80 "HgN/A
8:20 AM54 °FPartly sunny.9 mph88%29.80 "HgN/A
7:50 AM52 °FPartly sunny.9 mph94%29.80 "HgN/A
7:20 AM52 °FSunny.9 mph94%29.80 "Hg10 mi
6:50 AM52 °FClear.10 mph94%29.80 "Hg10 mi
6:20 AM50 °FClear.12 mph100%29.80 "Hg10 mi
5:50 AM52 °FClear.9 mph94%29.80 "Hg10 mi
5:20 AM52 °FClear.8 mph94%29.80 "Hg10 mi
4:50 AM50 °FClear.8 mph100%29.80 "Hg10 mi
4:20 AM50 °FPassing clouds.6 mph94%29.80 "HgN/A
3:50 AM50 °FPartly cloudy.5 mph100%29.80 "HgN/A
3:20 AM50 °FPassing clouds.6 mph94%29.80 "HgN/A
2:50 AM50 °FPassing clouds.9 mph94%29.80 "HgN/A
2:20 AM50 °FClear.7 mph94%29.77 "Hg10 mi
1:50 AM50 °FClear.5 mph100%29.77 "Hg10 mi
1:20 AM50 °FPassing clouds.3 mph100%29.77 "HgN/A
12:50 AM52 °FClear.5 mph94%29.77 "Hg10 mi
12:20 AM52 °FClear.5 mph94%29.77 "Hg10 mi
11:50 PM
Aug 28
50 °FClear.7 mph100%29.77 "Hg10 mi
11:20 PM52 °FClear.3 mph94%29.77 "Hg10 mi
10:50 PM50 °FClear.5 mph100%29.77 "Hg10 mi
10:20 PM52 °FClear.5 mph94%29.77 "Hg10 mi
9:50 PM54 °FPassing clouds.5 mph94%29.77 "HgN/A
9:20 PM54 °FScattered clouds.5 mph94%29.77 "HgN/A
8:50 PM54 °FFog.6 mph100%29.74 "HgN/A
8:20 PM57 °FPartly sunny.3 mph88%29.74 "HgN/A
7:50 PM57 °FScattered showers. Partly sunny.3 mph88%29.74 "HgN/A
7:20 PM57 °FScattered showers. Partly sunny.5 mph88%29.74 "HgN/A
6:50 PM59 °FScattered showers. Partly sunny.3 mph82%29.74 "HgN/A
6:20 PM57 °FScattered showers. Partly sunny.5 mph88%29.71 "HgN/A
5:50 PM59 °FSprinkles. Partly sunny.2 mph77%29.71 "HgN/A
5:20 PM61 °FScattered showers. Broken clouds.3 mph77%29.71 "HgN/A
4:50 PM61 °FScattered showers. Broken clouds.6 mph83%29.71 "HgN/A
4:20 PM57 °FSprinkles. Partly sunny.5 mph88%29.68 "HgN/A
3:50 PM64 °FScattered showers. Broken clouds.6 mph60%29.68 "HgN/A
3:20 PM61 °FScattered showers. Broken clouds.9 mph77%29.68 "HgN/A
2:50 PM63 °FSprinkles. Broken clouds.7 mph68%29.68 "HgN/A
2:20 PM59 °FScattered showers. Broken clouds.12 mph77%29.65 "HgN/A
1:50 PM64 °FScattered showers. Broken clouds.10 mph60%29.65 "HgN/A
1:20 PM63 °FScattered showers. Scattered clouds.9 mph68%29.65 "HgN/A
12:50 PM61 °FScattered showers. Partly sunny.13 mph72%29.65 "HgN/A
12:20 PM61 °FScattered showers. Broken clouds.12 mph72%29.65 "HgN/A
11:50 AM61 °FPartly sunny.10 mph72%29.62 "HgN/A
11:20 AM61 °FScattered showers. Partly sunny.9 mph77%29.62 "HgN/A
Weather by CustomWeather, © 2014

See weather overviewHow to use our weather pages